Find Starlink 4634

NORAD ID: 53967 Int'l Des: 2022-125 Owner: SPXS Country: US Constellation: starlink operational
LEOCIRCULAR

Live Position

Loading 3D Globe...

About Starlink 4634

Description loading...

Upcoming Passes

Passes for default location (London). Set your location on the main map for personalized predictions.

Altitude History

Loading altitude history...

Two-Line Element Set

1 53967U 22125D 26109.70580110 -.00000536 00000-0 -15563-4 0 9992
2 53967 53.2200 40.0268 0001508 88.2497 271.8667 15.08830470195510
Epoch: Apr 19, 2026 • Age: 29 hours

Current Status

Altitude 544.3 km
Velocity 7.59 km/s
Sub-Earth Point -15.59°S, 40.94°E
Launch Date Oct 5, 2022
Age 3.5 years
Type internet

Technical Details

Classification Payload
Mass 305.00 kg
Dry Mass 290.00 kg
Total Mass 305.00 kg
Length 0.20 m
Diameter 2.80 m
Span 9.00 m
Shape Box + pan
Manufacturer SPXS
Bus Type Starlink
Phase Status In Orbit
Owner/State SPXS/US

Most Searched